RH
69 62 62 62 61 65 76 58 66 49 65 44 44 42 45 43 35 40 40 39 36 36 36 30 29 28 28 28 29 29 30 32 32 34 37 41 46 49 58 65 64 63 60 54
76 66 69 76 71 65 59 63 69 63 65 44 42 48 39 36 38 39 38 38 38 39 36 34 32 32 32 33 33 33 34 34 34 38 38 38 40 43 52 57 62 66 65 60
74 69 69 67 55 59 64 58 52 61 46 38 37 37 35 34 43 43 43 43 44 44 41 37 37 38 38 38 38 38 37 35 36 38 37 38 40 44 47 53 59 63 64 63
93 70 78 50 42 39 54 49 52 50 45 36 36 36 35 36 42 46 46 47 48 44 43 41 41 42 42 42 42 42 42 41 41 40 39 39 45 49 48 48 54 60 62 63
88 88 68 46 38 37 36 36 34 42 42 40 40 40 43 38 40 44 49 44 42 41 43 44 47 47 47 47 48 48 46 45 44 43 46 45 45 46 48 53 55 56 58 62
88 90 84 49 37 36 34 44 34 40 40 41 44 60 60 41 47 50 46 46 47 47 48 50 49 50 50 50 51 51 49 48 47 49 48 45 43 46 52 59 61 62 64 63
89 91 82 57 44 38 55 48 32 44 48 50 53 54 47 50 54 49 50 52 51 52 52 48 49 50 53 55 56 53 52 52 51 50 49 48 50 53 60 63 67 69 70 67
79 92 92 51 46 54 47 44 52 50 49 52 54 55 56 56 58 57 58 55 50 50 49 49 52 54 56 60 56 57 58 58 56 54 52 52 60 60 56 61 68 71 74 72
78 72 52 49 42 41 48 54 51 52 52 55 60 59 58 61 59 55 54 50 49 50 53 55 56 58 60 61 60 61 62 60 58 56 51 49 51 51 56 62 70 72 76 78
64 50 51 43 42 45 46 50 51 53 55 54 60 60 65 66 60 56 52 53 53 56 59 61 62 64 65 63 62 66 64 59 56 55 53 53 54 57 62 66 72 76 78 79
62 57 50 49 48 52 55 53 53 56 57 60 64 66 64 62 61 58 56 56 57 60 63 64 62 62 58 58 60 61 60 60 60 61 63 64 63 64 66 65 70 75 76 79
61 51 64 61 55 53 54 56 58 60 58 57 58 62 61 64 58 57 59 57 59 61 64 62 62 60 57 60 63 66 67 66 68 71 71 72 74 71 63 65 67 72 75 81
55 52 62 59 57 54 57 56 54 55 56 62 58 58 58 61 55 57 52 52 55 59 60 59 57 58 56 59 64 64 68 70 75 76 77 80 81 85 91 73 77 74 76 78
54 62 65 58 58 56 53 50 50 52 52 54 53 52 55 58 54 56 58 53 50 52 54 56 54 53 55 59 64 66 74 80 84 86 86 85 85 87 91 97 100 94 84 88
48 55 59 57 58 59 58 60 65 64 61 62 58 59 59 62 62 61 56 53 51 53 52 57 54 44 49 61 64 70 80 81 82 82 82 87 89 87 90 92 93 94 91 91
64 63 59 62 72 73 71 73 75 77 74 70 68 64 59 61 62 62 60 55 61 62 59 61 58 40 54 64 63 71 82 89 92 89 93 90 84 87 87 89 94 99 100 100
68 74 75 77 79 78 76 80 84 86 82 78 68 58 62 66 70 71 63 61 61 61 59 59 53 45 63 68 71 68 76 92 86 98 97 99 99 97 90 92 98 100 100 97
66 66 69 76 81 80 78 72 69 67 71 58 60 67 72 75 77 73 72 68 68 69 66 52 50 50 53 63 71 74 75 86 94 94 97 99 100 94 91 92 91 96 97 97
67 61 53 51 51 63 68 66 60 60 59 63 67 67 67 74 76 73 72 72 75 73 61 51 52 52 55 59 68 76 82 87 90 91 96 100 100 99 96 94 92 92 93 98
49 42 61 75 53 54 61 57 57 56 52 57 61 63 63 63 63 68 71 78 71 68 60 53 56 61 57 66 78 76 76 84 85 95 98 100 100 100 97 96 94 91 92 94
51 52 72 68 58 55 56 56 57 62 58 57 62 63 61 60 62 66 74 76 65 66 65 63 65 65 63 72 77 74 74 82 91 93 99 100 97 96 96 99 99 98 93 90
57 58 59 58 60 60 60 60 57 57 60 60 55 57 62 66 67 71 74 77 70 68 69 67 66 66 66 72 78 84 83 81 86 90 94 95 100 100 100 100 100 99 98 93
54 56 57 55 56 53 50 48 49 56 58 54 55 57 58 60 63 72 78 68 71 69 71 74 72 69 73 78 81 85 85 89 88 88 89 92 99 100 100 100 100 99 97 98
49 50 52 49 51 56 60 54 54 54 54 55 58 59 64 68 72 74 74 73 70 68 72 77 74 75 82 85 73 83 79 80 82 88 94 100 100 100 100 100 100 100 96 96
52 54 58 61 67 62 59 61 64 66 68 69 67 64 64 68 81 69 72 73 73 74 78 76 76 76 82 81 67 72 73 71 76 86 100 100 100 100 100 100 98 95 97 100
58 56 52 52 53 52 54 57 61 60 62 64 64 65 67 69 71 74 73 73 79 84 85 82 81 77 76 80 68 67 69 68 75 81 83 90 94 98 98 95 95 96 96 100
54 56 60 61 59 60 64 69 73 70 67 68 70 70 72 74 74 79 82 85 87 89 89 86 86 86 79 78 72 64 66 67 68 71 79 84 88 85 80 86 91 90 95 100
Wind_Speed
5 7 4 6 8 8 9 11 8 5 10 14 7 7 10 7 4 7 6 6 6 6 8 13 16 17 17 19 22 22 19 18 21 22 24 26 26 26 25 26 28 28 26 26
4 5 5 6 11 14 15 13 11 12 20 13 11 7 5 5 5 3 3 5 7 7 12 17 23 26 27 28 29 27 24 23 24 24 26 29 30 29 27 27 28 28 29 29
5 2 6 8 9 13 5 6 12 14 13 7 4 5 5 0 4 5 6 7 8 8 13 22 28 30 31 33 31 30 28 29 26 25 29 30 28 27 27 29 29 30 30 30
3 3 2 4 4 5 10 5 8 8 6 3 2 5 3 3 4 5 6 7 8 13 21 26 31 31 33 32 32 31 28 29 28 28 27 27 26 26 27 26 28 29 31 32
2 3 8 2 3 4 4 0 3 4 3 4 1 1 4 2 1 3 5 13 18 24 25 30 28 29 30 33 28 25 28 30 30 27 26 25 28 28 28 28 27 27 29 29
1 2 5 3 2 2 2 3 5 2 0 1 3 2 4 4 5 8 17 19 19 21 25 27 27 26 27 29 28 27 28 28 28 24 26 31 30 29 28 25 24 25 26 26
6 4 8 6 4 1 4 4 2 2 3 5 1 4 5 7 7 15 16 20 22 22 23 26 25 25 25 24 22 27 28 28 27 28 28 26 25 24 20 20 20 22 23 25
6 4 9 6 3 5 3 2 5 3 1 3 6 7 6 8 7 10 12 18 20 20 23 26 24 22 25 22 27 29 29 27 27 27 23 20 18 18 18 18 19 21 21 24
8 6 4 5 3 2 3 3 2 2 4 5 6 5 7 6 7 10 12 13 17 17 19 21 22 20 22 26 28 29 30 29 26 24 20 18 18 18 17 15 14 17 18 20
2 2 3 3 2 3 3 4 5 5 4 4 6 7 7 6 6 8 14 15 17 19 18 20 21 22 21 25 25 23 24 24 22 19 19 17 15 14 15 15 14 15 17 18
4 5 6 2 2 4 6 4 3 5 5 7 6 6 5 5 5 10 14 17 19 18 18 21 26 28 27 26 23 23 21 20 19 17 16 17 15 15 15 16 15 17 20 19
12 5 3 12 11 7 4 4 4 4 4 4 3 4 3 5 9 12 15 19 20 21 20 25 28 28 27 23 19 18 20 19 18 17 17 16 17 20 15 12 12 13 16 18
14 6 7 14 13 4 3 4 4 5 5 4 5 5 7 6 9 16 20 19 20 22 25 26 27 29 27 23 18 16 15 17 18 17 16 16 17 16 19 25 20 16 12 13
7 10 10 4 3 3 3 5 4 4 4 5 7 10 10 11 17 18 19 23 25 26 27 26 28 29 25 21 17 15 13 13 14 17 17 18 18 18 16 18 18 23 23 19
10 3 1 0 1 3 4 3 4 4 4 6 10 10 14 12 12 18 26 27 25 25 25 23 27 30 25 21 18 15 13 13 13 16 19 18 17 17 16 17 20 21 24 22
4 4 2 2 4 3 3 4 3 5 5 7 10 16 20 19 22 25 27 26 20 19 26 26 29 28 23 19 16 17 16 14 16 16 21 24 22 20 19 19 19 18 17 17
2 2 3 2 4 5 5 5 5 6 9 10 16 20 22 22 20 20 24 28 26 28 29 28 29 23 19 14 17 17 18 17 19 21 21 25 24 23 22 19 18 16 17 20
5 3 4 5 6 6 8 8 13 15 12 21 22 19 17 14 12 19 21 25 27 27 26 30 25 24 23 21 19 19 20 22 21 20 21 22 23 25 23 21 22 20 20 21
13 10 17 14 13 11 11 14 18 17 21 20 17 17 20 19 19 23 25 24 20 20 31 33 30 28 28 23 18 19 20 20 22 20 19 21 22 23 24 25 23 22 19 20
16 22 16 18 22 17 15 20 21 22 27 24 21 19 21 24 23 23 24 22 27 26 32 32 33 30 27 26 20 17 18 22 21 22 20 20 21 22 22 23 24 23 22 20
11 15 16 16 18 22 22 24 23 20 25 24 20 21 24 28 27 26 21 15 35 29 29 29 29 30 25 22 22 21 19 19 21 20 19 20 21 20 21 22 23 21 22 21
14 13 15 18 18 19 22 24 26 26 24 23 26 24 22 24 24 25 28 27 33 34 32 30 28 27 26 23 22 23 22 21 21 21 20 20 19 19 19 18 20 19 22 21
18 20 21 21 20 24 26 26 28 26 25 24 23 23 23 24 24 18 13 33 25 30 29 31 32 30 25 21 23 24 23 21 20 20 20 21 20 20 19 19 20 20 21 21
21 21 22 27 25 21 13 27 28 27 28 29 28 29 26 22 25 26 27 32 33 32 32 30 30 30 24 24 22 23 23 20 18 18 19 17 18 19 19 20 21 21 21 20
23 25 23 20 16 18 22 26 25 27 25 26 30 32 30 29 24 32 30 32 32 31 33 31 28 26 23 23 20 23 23 20 17 17 16 17 17 17 18 19 21 21 21 20
22 19 20 22 23 25 25 23 18 24 21 20 25 25 27 29 29 29 32 33 32 29 30 30 29 26 23 24 21 22 23 22 20 18 16 16 17 19 20 21 21 21 21 19
23 21 19 21 22 22 23 21 16 20 21 19 22 28 24 25 27 25 27 29 30 29 29 30 28 24 22 24 22 22 23 24 23 23 23 22 21 21 20 21 21 21 20 20
Wind_Direction
261 244 238 225 226 207 202 217 206 212 228 245 261 275 310 283 293 310 317 322 327 321 311 315 319 317 317 320 323 320 310 304 303 303 298 295 290 286 280 271 266 265 263 261
283 287 248 264 249 237 234 233 245 256 272 266 263 268 250 286 270 281 324 331 327 322 328 334 335 328 325 323 324 321 308 300 302 299 303 300 291 287 280 275 271 268 264 262
256 331 311 285 244 222 189 202 218 229 248 257 250 213 274 11 50 3 347 329 321 307 307 326 328 328 323 323 323 322 318 311 307 309 311 305 295 283 281 277 275 270 265 261
270 4 260 244 264 199 197 226 225 272 257 201 199 230 225 211 53 338 309 299 306 315 324 323 325 324 324 322 321 321 318 316 313 312 310 312 307 289 281 279 275 272 270 266
255 252 301 297 179 153 179 145 198 165 79 142 203 197 328 32 15 272 285 316 310 314 316 320 318 326 322 318 318 317 317 318 319 318 313 314 309 301 295 286 278 273 271 267
135 218 258 299 198 148 119 251 197 154 47 56 54 4 264 280 326 305 300 298 301 315 314 314 319 324 318 315 317 317 322 319 320 319 316 312 306 301 300 292 282 281 277 272
205 242 279 242 225 167 131 209 117 85 58 38 359 216 254 298 295 297 305 317 321 316 313 315 323 325 318 315 310 321 321 320 319 317 316 311 307 300 299 295 290 284 279 277
188 214 261 171 77 177 212 16 105 72 167 249 246 270 279 285 280 288 299 311 317 315 313 318 325 326 319 311 321 323 323 321 320 319 320 318 313 307 307 303 299 295 292 289
191 209 236 205 17 73 96 129 217 240 259 253 271 274 287 277 293 305 304 308 316 314 310 312 317 322 313 313 319 322 321 321 322 322 319 319 313 308 305 302 294 293 294 293
140 313 302 291 109 97 191 226 255 252 260 281 274 271 270 280 292 308 317 321 325 326 319 316 322 322 318 322 325 320 318 321 325 322 323 323 321 315 308 304 298 294 293 290
237 279 307 113 180 243 244 228 200 251 242 249 258 273 274 293 302 306 312 321 328 323 317 315 330 330 333 335 332 326 327 329 331 332 330 327 324 320 315 309 304 299 295 294
267 262 244 280 292 279 257 261 287 259 278 274 257 289 297 302 311 317 317 324 324 323 322 326 332 332 334 336 333 330 326 332 334 334 334 333 330 326 324 316 309 299 294 288
251 244 230 255 257 165 240 259 258 260 270 291 314 313 317 301 309 320 319 323 323 320 324 327 330 330 334 331 327 327 328 333 334 335 334 333 330 329 324 322 323 321 316 304
198 208 257 227 237 302 262 287 294 295 306 300 306 315 319 307 311 312 309 320 324 322 318 322 325 323 332 327 318 315 324 335 336 333 331 326 321 319 320 315 314 318 322 321
276 161 156 94 12 345 343 333 334 321 306 308 314 302 310 307 304 307 315 319 320 316 313 317 320 320 327 321 308 302 309 323 336 340 334 329 324 323 323 318 315 312 323 327
74 49 61 74 10 336 298 317 322 299 295 295 299 303 307 308 307 308 312 315 312 304 308 311 312 320 321 315 307 295 297 303 313 320 320 323 318 314 313 313 311 310 307 308
116 81 27 304 315 314 295 284 258 263 274 274 280 301 308 305 301 301 307 314 310 305 309 307 310 316 316 314 311 299 289 298 313 309 295 304 306 305 309 304 300 297 296 310
63 35 341 292 293 305 306 291 288 281 269 287 294 291 280 274 269 284 289 301 302 299 300 310 317 313 309 309 312 306 292 293 297 297 291 289 288 292 295 298 300 297 304 310
357 345 331 310 295 274 268 270 279 292 300 302 299 296 294 286 284 286 292 293 292 297 302 312 311 312 307 301 302 304 301 297 294 292 287 284 284 284 289 292 292 297 302 304
287 290 286 289 290 281 274 283 287 291 296 297 295 297 298 296 297 294 293 280 283 281 299 305 307 304 302 302 296 296 292 290 290 291 290 284 279 284 287 286 288 289 288 293
274 279 262 261 274 279 278 281 283 278 281 286 284 281 282 285 288 289 289 289 291 296 297 298 297 298 297 299 298 292 288 287 287 282 281 281 286 288 288 287 288 288 284 282
274 274 276 279 278 277 278 274 271 270 267 269 274 276 275 277 285 286 279 266 284 292 293 295 297 296 293 297 294 289 285 282 283 286 282 281 278 277 277 278 280 291 290 286
273 274 272 272 272 275 281 278 277 273 269 270 271 273 277 279 281 279 283 289 285 289 293 293 297 301 292 290 291 287 284 281 281 284 286 286 281 276 271 274 285 290 287 287
267 268 265 271 275 275 272 277 279 279 280 284 282 280 277 279 281 277 275 279 287 291 294 294 297 293 286 285 288 285 280 280 286 290 290 284 278 279 278 281 285 288 287 290
266 267 271 272 268 269 274 275 278 278 276 275 278 283 284 279 253 279 283 284 287 290 291 293 294 295 285 283 288 285 281 285 291 296 289 284 287 286 289 288 288 288 287 286
269 267 272 268 267 276 276 277 270 275 277 275 279 279 280 280 280 281 284 286 284 283 285 294 298 295 289 287 287 287 286 287 288 289 299 300 299 300 300 297 290 288 286 283
275 276 271 272 271 269 265 261 258 267 273 269 272 281 282 283 285 283 283 284 286 286 289 295 296 292 287 284 282 286 291 293 291 294 290 286 287 292 298 296 291 289 292 287